DW2182 Weather Reports


time (UTC)temp
C
wind
direction
speed
KPH
gust
KPH
rain 1hr
cm
rain 24hr
cm
rain mn
cm
humidity
%
barometer
mb
20260505111516 2 0.0 0.0 0.00 0.00 0.00 71 1008.6
20260505110516 2 0.0 3.2 0.00 0.00 0.00 71 1008.4
20260505101516 2 135 1.6 3.2 0.00 0.00 0.00 70 1008.1
20260505100516 2 135 1.6 3.2 0.00 0.00 0.00 70 1008.3
20260505095515 2 135 1.6 4.8 0.00 0.00 0.00 69 1008.4
20260505094515 2 0.0 0.0 0.00 0.00 0.00 69 1008.4
20260505093515 2 0.0 0.0 0.00 0.00 0.00 68 1008.3
20260505092516 2 0.0 3.2 0.00 0.00 0.00 68 1008.0
20260505091516 3 0.0 0.0 0.00 0.00 0.00 68 1007.9
20260505090515 3 0.0 0.0 0.00 0.00 0.00 68 1007.8
20260505085515 3 0.0 0.0 0.00 0.00 0.00 67 1007.8
20260505084516 3 0.0 0.0 0.00 0.00 0.00 66 1007.8
20260505083516 3 0.0 0.0 0.00 0.00 0.00 65 1007.8
20260505082538 3 0.0 0.0 0.00 0.00 0.00 64 1007.7
20260505081517 3 0.0 0.0 0.00 0.00 0.00 64 1007.6
20260505080517 4 0.0 0.0 0.00 0.00 0.00 63 1007.4
20260505075517 4 135 1.6 3.2 0.00 0.00 0.00 63 1007.4
20260505074515 4 135 1.6 3.2 0.00 0.00 0.00 62 1007.4
20260505073517 4 135 1.6 3.2 0.00 0.00 0.00 61 1007.3
20260505072517 5 0.0 3.2 0.00 0.00 0.00 61 1007.4
20260505071517 5 0.0 3.2 0.00 0.00 0.00 61 1007.4
20260505070518 5 0.0 0.0 0.00 0.00 0.00 60 1007.3
20260505065517 5 0.0 0.0 0.00 0.00 0.00 60 1007.5
20260505064537 5 0.0 0.0 0.00 0.00 0.00 59 1007.6
20260505063518 5 0.0 0.0 0.00 0.00 0.00 58 1007.6
20260505062517 5 0.0 0.0 0.00 0.00 0.00 58 1007.7
20260505061517 5 0.0 0.0 0.00 0.00 0.00 58 1007.5
20260505060537 5 0.0 0.0 0.00 0.00 0.00 57 1007.6
20260505055517 6 0.0 0.0 0.00 0.00 0.00 56 1007.5
20260505054518 6 0.0 0.0 0.00 0.00 0.00 56 1007.4
20260505053538 6 0.0 0.0 0.00 0.00 0.00 55 1007.5
20260505052518 6 0.0 0.0 0.00 0.00 0.00 55 1007.4
20260505051517 6 0.0 3.2 0.00 0.00 0.00 54 1007.4
20260505050517 6 0.0 0.0 0.00 0.00 0.00 54 1007.4
20260505041518 7 0.0 0.0 0.00 0.00 0.00 49 1007.2
20260505040518 7 0.0 1.6 0.00 0.00 0.00 48 1007.1
20260505035518 7 0.0 1.6 0.00 0.00 0.00 47 1007.1
20260505034518 8 0.0 3.2 0.00 0.00 0.00 47 1007.1
20260505033517 8 0.0 3.2 0.00 0.00 0.00 46 1007.1
20260505032517 8 135 3.2 8.0 0.00 0.00 0.00 45 1007.2
20260505031517 8 135 3.2 4.8 0.00 0.00 0.00 45 1007.2
20260505030517 8 158 3.2 8.0 0.00 0.00 0.00 44 1007.0
20260505025517 9 135 3.2 4.8 0.00 0.00 0.00 44 1007.0
20260505024517 9 135 3.2 6.4 0.00 0.00 0.00 43 1007.0
20260505023517 9 135 3.2 8.0 0.00 0.00 0.00 43 1006.9
20260505022537 10 135 4.8 8.0 0.00 0.00 0.00 42 1006.7
20260505021557 10 158 4.8 8.0 0.00 0.00 0.00 42 1006.6
20260505020517 10 135 4.8 11.3 0.00 0.00 0.00 41 1006.4
20260505015517 10 158 6.4 14.5 0.00 0.00 0.00 41 1006.4
20260505014517 11 158 9.7 16.1 0.00 0.00 0.00 41 1006.2
20260505013517 11 135 6.4 14.5 0.00 0.00 0.00 39 1005.9
20260505012517 11 135 8.0 17.7 0.00 0.00 0.00 38 1005.9
20260505011517 11 135 9.7 22.5 0.00 0.00 0.00 38 1005.8
20260505010517 11 158 12.9 24.1 0.00 0.00 0.00 37 1005.6
20260505005517 12 135 11.3 19.3 0.00 0.00 0.00 37 1005.3
20260505004517 12 135 14.5 29.0 0.00 0.00 0.00 37 1005.2
20260505003517 12 135 11.3 24.1 0.00 0.00 0.00 37 1005.0
20260505002517 12 135 11.3 24.1 0.00 0.00 0.00 37 1004.9
20260505001517 12 135 11.3 19.3 0.00 0.00 0.00 38 1004.8
20260505000517 12 158 14.5 27.4 0.00 0.00 0.00 37 1004.6
20260504235517 13 135 12.9 27.4 0.00 0.00 0.00 38 1004.7
20260504234517 13 135 11.3 22.5 0.00 0.00 0.00 39 1004.5
20260504233537 13 135 14.5 24.1 0.00 0.00 0.00 38 1004.5
20260504232537 13 135 16.1 33.8 0.00 0.00 0.00 38 1004.3
20260504231517 13 135 16.1 27.4 0.00 0.00 0.00 38 1004.2
20260504230537 14 135 19.3 32.2 0.00 0.00 0.00 38 1004.2
20260504225517 14 135 12.9 22.5 0.00 0.00 0.00 38 1004.0
20260504224518 15 135 19.3 32.2 0.00 0.00 0.00 39 1003.7
20260504223517 15 135 19.3 30.6 0.00 0.00 0.00 38 1003.7
20260504222517 16 135 17.7 33.8 0.00 0.00 0.00 37 1003.4
20260504221517 16 135 17.7 33.8 0.00 0.00 0.00 37 1003.2
20260504220518 16 135 12.9 25.7 0.00 0.00 0.00 36 1002.9
20260504215517 17 135 17.7 43.5 0.00 0.00 0.00 35 1002.8
20260504214517 17 135 17.7 30.6 0.00 0.00 0.00 35 1002.6
20260504213517 17 135 17.7 32.2 0.00 0.00 0.00 34 1002.6
20260504212518 17 135 16.1 29.0 0.00 0.00 0.00 35 1002.4
20260504211517 17 135 17.7 33.8 0.00 0.00 0.00 35 1002.3
20260504210517 17 135 16.1 30.6 0.00 0.00 0.00 35 1002.2
20260504205537 17 135 16.1 25.7 0.00 0.00 0.00 34 1002.3
20260504204537 17 135 14.5 30.6 0.00 0.00 0.00 34 1002.3
20260504203517 17 135 14.5 22.5 0.00 0.00 0.00 34 1002.3
20260504202517 17 135 17.7 32.2 0.00 0.00 0.00 33 1002.3
20260504201517 17 135 16.1 30.6 0.00 0.00 0.00 33 1002.4
20260504200517 17 135 16.1 35.4 0.00 0.00 0.00 34 1002.5
20260504195517 17 135 16.1 27.4 0.00 0.00 0.00 35 1002.4
20260504194517 17 135 19.3 37.0 0.00 0.00 0.00 33 1002.2
20260504193517 18 135 20.9 32.2 0.00 0.00 0.00 32 1002.3
20260504192517 18 135 17.7 35.4 0.00 0.00 0.00 28 1002.0
20260504191517 18 135 19.3 30.6 0.00 0.00 0.00 28 1001.9
20260504190517 18 135 14.5 30.6 0.00 0.00 0.00 30 1001.5
20260504185557 18 135 19.3 29.0 0.00 0.00 0.00 30 1001.4
20260504184517 18 135 16.1 29.0 0.00 0.00 0.00 31 1001.4
20260504183516 18 135 19.3 32.2 0.00 0.00 0.00 29 1001.3
20260504182516 19 135 19.3 33.8 0.00 0.00 0.00 32 1001.5
20260504181517 19 135 16.1 32.2 0.00 0.00 0.00 34 1001.3
20260504180516 18 135 17.7 30.6 0.00 0.00 0.00 35 1001.1
20260504175516 18 135 17.7 27.4 0.00 0.00 0.00 35 1000.9
20260504174516 18 135 14.5 27.4 0.00 0.00 0.00 36 1001.0
20260504173537 19 135 17.7 30.6 0.00 0.00 0.00 34 1000.8
20260504172517 19 135 16.1 27.4 0.00 0.00 0.00 37 1000.9
20260504171517 19 135 12.9 35.4 0.00 0.00 0.00 37 1000.7
20260504170537 19 135 11.3 30.6 0.00 0.00 0.00 36 1000.7
20260504150517 16 135 14.5 24.1 0.00 0.00 0.00 40 999.8
20260504140517 16 135 12.9 29.0 0.00 0.00 0.00 43 999.7
20260504130516 16 135 12.9 19.3 0.00 0.00 0.00 49 999.4